RH
82 86 89 88 88 90 90 91 91 91 90 88 84 83 84 81 81 81 80 81 79 73 72 74 77 78 77 78 79 81 83 85 87 84 78 73 72 73 76 83 83 73 79
80 83 90 89 89 89 90 91 90 90 90 86 86 86 86 83 80 78 78 77 76 73 73 75 76 74 74 79 82 83 83 87 87 86 81 74 70 64 69 80 81 78 83
81 80 82 91 89 90 90 89 89 87 85 83 84 86 84 82 80 78 78 79 76 73 73 74 73 73 74 76 81 86 86 88 88 86 82 75 69 70 70 77 81 80 78
76 84 85 92 91 92 91 89 87 85 84 86 85 84 84 82 78 78 80 83 77 73 73 74 75 78 81 84 83 82 83 87 90 89 78 74 65 79 87 74 73 77 80
89 90 90 95 95 94 92 92 92 92 91 89 87 83 80 77 77 80 83 84 76 73 73 73 75 78 83 86 88 87 86 85 86 79 77 88 85 74 75 74 78 80 81
96 95 95 94 94 93 93 93 91 90 91 91 89 82 79 78 80 83 80 78 73 71 71 71 73 77 82 85 84 83 87 89 86 84 92 81 88 75 64 71 80 80 81
94 92 89 92 91 90 90 89 91 92 92 90 88 85 81 80 80 80 79 77 75 73 72 71 71 73 77 82 81 83 83 85 81 85 92 84 79 76 74 75 86 80 80
80 88 82 87 89 90 90 90 91 91 92 92 90 87 82 82 83 79 78 76 73 72 70 69 70 70 74 78 81 83 83 82 71 81 90 91 74 69 75 85 85 80 79
66 75 86 83 82 88 90 91 90 90 89 88 87 88 86 87 86 82 78 74 71 69 68 67 70 75 76 77 79 82 84 84 82 74 75 93 78 78 80 71 76 80 80
52 59 72 79 80 89 90 90 89 88 86 84 84 87 86 85 84 82 80 78 74 71 68 68 73 76 77 75 76 78 82 82 66 74 85 93 84 73 70 72 73 77 81
46 53 64 67 75 80 85 82 87 86 86 84 84 85 88 88 85 80 83 80 76 76 76 76 77 78 79 79 78 82 81 80 70 79 89 84 78 70 71 72 74 77 78
51 56 53 55 72 71 50 80 88 81 87 87 85 87 87 87 89 73 79 79 76 78 79 80 82 82 82 84 68 74 77 69 58 68 92 83 73 63 66 73 76 77 79
45 55 59 58 56 55 59 78 84 84 90 86 78 69 67 76 79 78 90 87 93 86 89 82 82 87 80 74 62 57 55 51 60 58 80 78 68 57 58 60 66 70 76
49 58 60 58 56 60 64 68 67 62 72 76 73 69 74 82 73 75 69 64 69 72 78 72 71 64 65 60 56 55 52 55 58 59 74 71 66 52 47 50 57 62 67
48 60 61 60 61 57 63 71 66 70 65 72 69 64 69 77 71 72 73 70 67 68 66 64 62 61 65 61 57 56 52 50 50 54 67 69 65 60 49 48 51 56 61
39 56 62 66 68 56 65 67 66 65 63 70 66 66 64 71 72 74 71 72 69 71 73 71 68 70 72 70 65 58 55 51 49 50 55 67 70 66 64 54 54 57 60
41 74 81 86 77 70 58 56 63 48 52 63 61 59 60 63 64 72 77 77 75 79 73 74 73 73 70 64 67 65 63 58 56 52 50 62 66 74 73 72 66 60 62
68 72 79 77 84 85 75 60 56 57 56 59 64 70 61 64 65 69 70 74 78 77 75 77 79 78 78 78 77 73 71 64 57 57 52 54 59 51 72 75 75 72 72
55 72 80 87 82 74 68 57 59 49 48 52 62 61 60 60 62 65 64 67 74 72 73 74 76 81 77 75 60 61 69 69 68 52 54 58 60 59 58 71 76 80 78
57 66 78 83 79 64 56 55 57 57 58 60 58 56 59 58 57 59 59 64 62 66 72 72 73 70 76 74 56 55 71 73 74 74 64 53 58 54 60 59 68 70 81
61 53 62 72 59 54 55 55 56 57 55 56 55 57 54 52 50 55 61 63 66 68 70 70 76 79 77 76 79 71 72 69 69 72 76 72 65 55 55 59 61 65 69
59 61 54 48 58 51 58 59 58 59 57 56 55 56 58 56 53 46 61 66 66 73 72 74 74 79 80 78 83 77 82 67 67 65 68 61 71 73 64 56 59 62 59
58 52 48 47 48 52 53 52 53 54 56 59 63 55 56 58 55 56 60 68 71 77 77 76 81 80 85 82 81 88 96 96 80 74 60 76 77 77 82 85 82 67 62
60 53 49 49 47 46 51 59 59 69 70 70 69 69 60 60 58 58 61 69 74 77 76 82 72 87 89 92 87 70 85 82 85 80 78 64 67 67 86 91 90 90 89
55 55 52 49 47 50 52 57 66 62 65 65 70 67 63 64 60 58 61 68 74 80 86 88 89 90 93 92 94 86 78 82 89 96 82 85 76 79 90 89 97 98 92
56 54 52 49 50 50 51 52 57 65 66 69 69 71 68 68 69 64 65 73 78 81 82 86 87 84 81 82 83 84 89 87 85 89 96 84 78 85 78 86 95 97 97
Wind_Speed
5 6 16 17 15 14 15 15 16 16 16 15 15 14 14 14 14 14 14 13 12 13 12 12 11 11 11 10 11 9 8 10 8 8 9 10 4 5 6 7 9 8 13
11 8 15 16 16 15 16 16 16 15 16 15 14 13 13 13 14 14 14 13 12 13 12 12 12 12 11 11 11 11 11 9 9 10 10 7 5 2 5 2 9 7 10
13 10 14 15 15 15 16 16 15 15 14 14 13 13 13 13 13 13 13 12 13 12 12 13 13 13 13 12 11 10 11 10 9 9 9 4 2 7 6 5 8 7 8
14 10 12 14 15 15 15 15 15 15 14 13 12 13 13 13 13 13 12 9 11 11 11 11 12 13 14 14 13 12 12 12 10 10 4 3 5 14 13 7 2 5 7
13 11 12 14 14 14 13 14 14 13 12 12 12 13 13 13 12 12 11 10 10 11 11 10 11 12 12 11 11 11 12 11 10 7 4 4 5 10 2 8 11 1 5
10 10 12 14 14 15 15 14 14 13 12 11 12 12 12 12 13 12 10 10 9 9 8 8 9 10 10 10 10 10 10 10 8 4 5 9 7 9 3 6 2 1 5
9 9 10 12 14 15 15 15 14 12 11 11 11 11 12 12 12 11 9 9 8 8 8 8 9 10 9 9 9 9 8 8 6 5 4 5 5 11 6 7 12 10 4
12 9 9 13 14 15 14 14 12 11 11 11 10 10 10 9 9 9 8 7 5 4 4 5 7 8 9 10 10 11 11 9 6 5 2 4 6 7 11 10 16 3 4
12 10 7 9 12 14 13 12 12 11 10 9 9 9 7 8 7 8 8 7 5 3 1 4 6 9 9 10 11 12 11 11 6 3 4 3 6 3 6 6 5 5 6
11 10 9 8 8 7 8 12 12 11 10 9 9 10 10 10 9 9 9 6 6 6 3 4 6 8 9 10 11 13 12 12 6 2 3 2 10 8 5 6 2 2 3
9 9 8 9 8 6 7 9 11 13 13 10 9 10 6 4 6 8 8 8 7 6 5 7 8 8 9 9 11 11 11 3 4 1 2 5 7 8 6 1 1 3 3
7 8 8 10 9 8 6 7 5 6 5 5 5 6 4 5 5 6 5 8 7 7 7 9 10 10 8 4 3 4 2 5 3 3 3 7 5 5 5 5 4 6 7
11 6 9 8 6 6 6 4 3 3 2 4 7 5 3 4 3 3 2 2 3 7 4 5 5 4 5 4 3 2 3 5 3 2 4 6 6 4 4 3 5 8 9
8 11 8 8 8 4 4 4 6 4 4 3 4 6 4 3 3 3 1 1 2 1 4 2 2 4 4 3 5 5 4 4 3 1 4 10 8 7 5 5 7 10 10
10 10 9 8 8 6 5 3 4 4 4 4 5 5 4 3 2 1 1 2 3 3 2 3 4 4 5 6 5 4 6 6 5 3 3 10 10 8 8 8 9 10 12
12 15 6 7 4 6 5 5 3 3 3 5 4 5 5 4 2 1 3 3 4 3 3 4 4 5 5 5 6 7 7 6 7 6 4 5 13 12 11 11 11 11 12
6 17 19 15 2 6 5 6 4 3 4 4 4 6 6 4 3 5 5 5 5 4 6 5 5 4 5 5 6 6 6 7 6 7 6 5 6 13 13 12 13 14 13
15 15 16 9 7 2 7 2 5 4 3 3 3 4 6 7 7 6 5 5 5 5 4 5 5 5 5 4 4 5 5 5 7 7 7 5 6 6 10 15 15 15 15
11 14 11 8 8 7 10 3 4 5 3 4 5 4 7 7 7 6 4 4 6 4 4 4 4 2 4 5 7 6 5 5 6 7 6 7 7 7 6 13 18 16 16
15 16 12 7 5 5 4 4 5 5 5 4 4 4 7 5 6 4 3 4 4 4 5 5 5 5 3 5 8 9 6 6 5 5 8 8 6 8 9 9 10 10 17
12 13 9 8 4 5 4 4 4 3 2 4 4 6 6 4 5 5 3 5 5 3 3 4 3 5 5 4 5 6 5 6 6 5 4 5 7 7 8 8 8 8 9
11 9 9 10 9 7 3 3 3 2 3 3 3 6 7 5 7 7 6 5 6 4 6 6 5 4 3 3 3 4 5 7 2 6 5 6 8 7 10 11 7 7 4
9 9 9 8 8 7 6 4 5 4 4 4 4 5 6 7 7 7 7 5 6 5 4 5 5 3 3 3 4 1 5 3 7 4 11 5 9 7 9 10 13 7 4
7 8 8 7 6 6 7 6 5 2 3 2 1 3 6 8 7 6 6 6 5 4 5 4 5 3 3 3 2 3 2 2 2 7 4 9 10 10 8 7 8 8 7
6 5 4 4 3 4 5 5 4 2 0 3 4 6 6 6 7 7 9 7 6 4 4 5 5 5 3 2 2 3 3 2 1 1 10 5 5 5 4 5 5 4 5
5 4 3 4 3 0 3 4 3 6 6 4 5 4 3 3 4 6 7 7 6 6 6 5 4 4 3 2 1 0 1 2 4 4 3 8 9 5 7 6 4 4 3
Wind_Direction
100 124 106 101 99 90 84 87 90 94 93 90 88 87 81 74 68 62 59 54 49 45 39 38 35 29 25 13 10 10 6 1 9 25 7 352 10 88 107 137 119 103 109
122 121 106 101 100 96 96 92 93 98 100 98 94 89 79 72 66 60 55 51 46 41 34 28 22 19 15 10 11 4 355 357 5 359 1 355 306 60 75 321 113 123 119
113 114 101 102 103 99 99 100 100 101 101 99 90 81 74 69 66 61 57 52 48 46 38 28 21 18 17 11 7 360 355 357 2 358 349 337 264 69 80 87 115 130 144
106 101 106 103 103 104 105 106 104 100 97 93 90 81 73 67 66 66 62 54 56 47 41 31 22 18 17 14 10 3 357 358 1 351 354 355 110 73 8 14 124 144 172
98 102 106 101 98 99 103 100 94 91 88 86 85 85 82 79 80 77 72 66 60 50 40 26 19 15 12 11 10 9 7 359 349 346 16 83 84 107 79 340 332 95 165
99 101 103 104 105 105 102 100 98 99 95 92 94 89 87 85 83 81 76 66 56 49 39 23 12 9 360 357 360 1 358 356 347 358 83 83 91 130 148 162 313 83 242
112 107 109 112 109 108 106 105 101 100 104 102 93 91 93 93 91 90 81 74 58 41 26 13 1 351 344 344 343 344 343 352 342 6 161 164 194 143 90 13 314 272 196
126 128 123 122 114 111 112 115 117 116 108 105 108 109 106 112 112 109 109 106 94 64 8 351 344 330 328 333 333 331 328 343 335 8 174 177 228 128 147 195 238 234 253
136 136 139 130 128 125 124 123 122 123 121 129 134 121 139 131 140 149 152 147 146 163 238 318 318 313 321 328 328 321 322 333 328 302 187 194 167 140 197 224 192 203 234
148 147 147 133 137 145 142 143 139 135 137 160 146 160 168 165 168 186 172 169 195 204 218 268 288 300 319 326 317 310 319 333 333 2 109 153 167 164 149 163 188 221 252
145 147 146 153 150 152 148 158 155 159 163 176 175 187 182 182 189 203 201 189 219 228 235 260 270 281 302 302 302 291 318 314 329 210 148 181 159 158 155 143 271 274 277
143 140 141 132 160 160 168 150 159 176 177 182 182 188 199 207 195 202 202 200 238 261 258 260 266 279 285 283 280 337 304 296 321 140 199 194 202 174 176 187 223 262 268
163 143 141 131 127 151 143 169 155 190 193 184 188 119 114 57 73 79 132 251 272 264 260 270 280 267 267 251 295 283 298 321 320 39 156 216 228 203 188 245 274 271 266
153 148 139 132 126 123 94 115 147 140 137 130 121 97 87 80 65 54 54 318 269 230 256 249 296 321 317 307 271 283 264 270 286 203 202 203 214 233 239 223 250 265 267
147 154 155 156 138 132 98 117 101 123 118 108 112 109 101 97 98 72 304 329 314 335 333 324 318 308 288 287 279 263 254 247 250 252 210 226 217 221 236 249 262 263 269
157 160 124 46 101 136 136 127 119 124 118 119 139 143 131 128 142 77 351 335 333 346 331 322 307 301 291 293 278 268 257 248 237 236 220 214 218 211 220 236 240 247 254
145 109 100 64 294 341 163 146 134 167 114 159 167 160 152 122 65 39 14 353 336 339 334 336 324 313 310 304 286 283 275 264 247 239 231 208 217 220 211 220 233 240 244
132 133 125 144 115 300 293 224 133 133 110 71 101 74 71 70 71 50 27 348 330 333 330 330 321 329 326 323 309 299 295 298 286 271 261 237 211 215 216 216 220 227 229
144 124 138 129 141 206 210 182 139 144 119 86 94 87 79 74 60 57 22 329 345 348 344 346 340 342 324 322 317 306 297 297 288 296 263 252 238 217 211 217 216 219 222
76 108 114 121 213 213 167 83 48 55 57 74 78 77 80 69 59 47 343 332 336 360 354 351 343 325 307 300 310 302 287 288 295 288 285 284 250 235 215 212 211 219 216
65 85 76 77 53 57 61 69 52 68 83 80 59 89 85 70 55 35 353 342 354 26 328 326 314 331 316 305 314 312 281 278 292 287 276 288 299 285 273 239 214 204 211
74 69 75 64 50 37 46 51 76 48 68 121 48 53 39 31 19 29 19 358 357 359 354 343 329 309 284 358 287 292 313 310 317 326 340 336 357 345 358 328 212 219 257
58 64 71 67 62 55 52 39 20 21 18 20 17 13 6 33 33 30 24 20 8 18 343 314 309 326 299 312 13 30 340 333 334 347 325 2 13 9 6 360 0 323 274
49 56 76 100 91 72 69 63 62 59 28 356 328 20 32 26 21 25 21 14 4 338 333 322 349 343 34 15 330 30 160 181 323 321 7 315 350 347 353 358 350 349 339
88 81 63 68 116 137 123 114 96 114 236 22 41 44 25 9 13 11 8 358 335 340 18 50 29 31 36 49 9 339 350 330 79 264 311 303 321 328 313 328 321 336 359
152 139 157 57 66 60 87 99 86 79 80 67 51 44 13 7 12 360 351 347 348 12 10 8 25 49 49 42 321 175 164 300 314 280 293 305 303 289 312 304 312 327 325